This is the latest recevied weather packets stored in our database for station/object SP3ZBZ-13. If no packets are shown the sender has not sent any weather packets the latest 10 day(s).
| Time | Temp. | Humidity | Pressure | Rain* | Wind** | Luminosity | Snow |
|---|---|---|---|---|---|---|---|
| 1777469085 | 10.56° C | 33% | 1025.6 hPa | - | - | 164 W/m² | - |
| 1777468183 | 10.56° C | 32% | 1025.6 hPa | - | - | 701 W/m² | - |
| 1777467282 | 10° C | 34% | 1025.8 hPa | - | - | 663 W/m² | - |
| 1777466382 | 11.11° C | 31% | 1025.7 hPa | - | - | 297 W/m² | - |
| 1777465481 | 10.56° C | 32% | 1025.7 hPa | - | - | 185 W/m² | - |
| 1777464579 | 10° C | 34% | 1025.8 hPa | - | - | 178 W/m² | - |
| 1777463679 | 10° C | 33% | 1026 hPa | - | - | 174 W/m² | - |
| 1777462778 | 10.56° C | 32% | 1025.8 hPa | - | - | 646 W/m² | - |
| 1777461877 | 10° C | 32% | 1026 hPa | - | - | 703 W/m² | - |
| 1777460976 | 10° C | 35% | 1026.1 hPa | - | - | 229 W/m² | - |
| 1777460075 | 9.44° C | 32% | 1025.9 hPa | - | - | 278 W/m² | - |
| 1777459174 | 9.44° C | 34% | 1026.2 hPa | - | - | 773 W/m² | - |
| 1777458273 | 9.44° C | 34% | 1026.2 hPa | - | - | 282 W/m² | - |
| 1777457372 | 9.44° C | 36% | 1026.2 hPa | - | - | 172 W/m² | - |
| 1777456471 | 9.44° C | 35% | 1026.3 hPa | - | - | 681 W/m² | - |
| 1777455570 | 8.89° C | 36% | 1026.1 hPa | - | - | 144 W/m² | - |
| 1777454669 | 9.44° C | 36% | 1026.1 hPa | - | - | 148 W/m² | - |
| 1777453768 | 8.89° C | 36% | 1026.1 hPa | - | - | 635 W/m² | - |
| 1777452867 | 8.89° C | 35% | 1026.2 hPa | - | - | 730 W/m² | - |
| 1777451966 | 8.33° C | 34% | 1026.2 hPa | - | - | 582 W/m² | - |
| 1777451064 | 8.89° C | 37% | 1026.2 hPa | - | - | 576 W/m² | - |
| 1777450163 | 7.78° C | 38% | 1026.2 hPa | - | - | 173 W/m² | - |
| 1777449262 | 7.78° C | 37% | 1026.1 hPa | - | - | 452 W/m² | - |
| 1777448361 | 8.33° C | 38% | 1026.1 hPa | - | - | 424 W/m² | - |
| 1777447460 | 7.22° C | 42% | 1026.2 hPa | - | - | 382 W/m² | - |
* Rain since midnight (hover to see other rain measurements)
** Current wind speed in m/s (hover to see current wind gust speed)